Volver al catálogo

DELTA 1 DEB

ActivoPO
NORAD 21365·DEBRIS·🇺🇸 United States

Lanzado Jun 12, 1975 desde Vandenberg Space Force Base

Loading…

Próximos Pases (próximas 24 horas)

TLE

ActualizadoSource: Space-Track

Época: Sep 14, 2026, 10:18 UTC

1 21365U 75052CK  26257.42934183 -.00000542  00000-0 -15084-2 0  9995
2 21365  99.7211 313.7989 0230415 335.6040  36.1236 12.98519795672938

Sigue DELTA 1 DEB en tiempo real con AllMySat

Download on the App Store